Location: Unspecified
(0.0000°N, 0.0000°E)
Time: 23:43:23
(UTC+02:00)

ATLAS V CENTAUR R/B - Visible Passes

Search period start: 29 June 2016 00:00
Search period end: 09 July 2016 00:00
Orbit: 256 x 28619 km, 18.0° (Epoch: 28 June)

Date Brightness Start Highest point End Pass type
(mag) Time Alt. Az. Time Alt. Az. Time Alt. Az.
29 Jun 7.7 05:02:22 22° WNW 05:36:06 62° N 12:32:56 10° ESE visible
30 Jun 8.1 05:58:04 10° WNW 12:38:53 86° SW 13:31:56 10° ESE visible
01 Jul 7.8 06:58:22 10° WNW 09:47:40 68° NW 14:29:51 10° ESE visible
03 Jul 8.1 00:21:27 13° ENE 00:21:27 13° ENE 00:24:27 10° ENE visible
04 Jul 7.6 01:15:36 30° ENE 01:15:36 30° ENE 07:46:45 10° E visible
05 Jul 7.2 02:09:42 49° NE 02:09:42 49° NE 09:11:40 10° E visible
06 Jul 7.1 03:03:44 54° NNW 03:06:30 56° N 10:19:52 10° ESE visible
07 Jul 7.4 03:57:43 38° NW 04:12:38 58° N 11:22:27 10° ESE visible
08 Jul 7.8 04:51:38 20° WNW 05:35:15 63° NNE 12:22:18 10° ESE visible
